Temperature
6 7 8 8 8 9 9 9 9 10 9 9 9 10 11 11 10 10 10 9 9 9 9 9 9 9 9 10 10 10 10 10 10 10 10 10 11 11 11 11 11 11 11 11
7 7 8 8 8 8 8 8 9 9 8 8 9 10 11 11 10 10 10 9 9 9 9 9 9 9 9 9 9 10 10 10 10 10 10 10 10 10 10 10 10 10 10 10
7 7 7 7 7 7 8 8 8 8 8 8 8 10 11 11 10 9 9 9 9 9 9 9 8 9 9 9 9 9 9 10 10 10 10 10 10 10 10 10 10 10 10 10
6 7 6 7 7 7 8 8 8 7 8 8 8 10 11 12 11 10 9 9 9 9 8 8 8 8 8 9 9 9 9 9 9 9 9 9 9 9 9 9 9 9 9 9
6 6 6 7 7 7 7 7 7 7 7 7 8 8 11 11 10 11 10 9 9 8 8 8 8 8 8 8 9 9 9 9 9 9 9 9 9 9 9 9 9 9 9 9
5 5 6 6 6 6 6 7 7 6 7 7 8 8 10 11 11 11 10 9 8 8 8 8 8 8 8 8 8 8 8 8 8 8 9 9 9 9 9 8 8 9 9 9
6 6 5 5 6 6 6 7 8 8 8 9 8 8 10 11 10 10 9 9 8 7 7 7 7 7 7 7 8 8 8 8 8 8 8 8 8 8 8 8 8 8 8 8
6 7 6 5 6 6 6 7 8 9 9 10 8 8 10 9 8 8 7 7 7 7 7 7 7 7 7 7 7 7 7 8 8 8 8 8 8 8 8 8 8 8 8 8
6 6 5 5 5 6 6 7 6 7 7 8 9 9 9 9 8 8 7 7 7 6 6 7 7 7 7 7 7 7 7 7 7 7 7 7 7 7 7 7 7 7 7 7
5 4 5 5 5 5 5 5 6 7 7 9 10 10 10 9 8 8 8 7 6 6 6 6 6 6 7 7 7 7 7 7 7 7 7 7 7 7 7 7 7 7 7 7
4 4 5 4 4 5 4 4 5 6 7 8 10 10 9 8 8 8 7 6 5 5 5 6 6 6 6 6 6 6 6 7 7 6 6 6 7 7 6 6 6 6 6 6
3 4 4 4 3 3 4 5 5 6 6 6 8 9 8 7 7 6 6 5 5 5 5 5 5 6 6 6 6 6 6 6 6 6 6 6 6 6 6 6 6 6 6 6
3 3 5 5 4 3 3 3 3 4 5 6 7 9 7 6 6 5 5 5 5 4 5 5 5 5 6 6 6 6 6 6 6 6 6 6 6 6 6 6 6 5 5 5
2 3 4 6 6 4 3 3 3 4 5 6 6 7 7 7 6 6 5 5 4 4 4 4 4 5 5 5 5 6 5 5 5 5 5 5 5 5 5 5 5 5 5 5
2 3 2 3 3 3 3 3 3 3 4 5 6 6 7 7 6 5 4 4 4 4 4 4 4 4 4 5 5 5 5 5 5 5 5 5 5 4 4 4 4 4 4 4
0 1 1 2 2 2 2 3 3 3 3 4 4 5 6 5 5 5 4 3 3 3 3 3 3 4 4 4 4 4 4 4 4 4 4 4 4 4 4 4 4 4 4 4
0 0 2 4 2 2 4 3 3 3 3 3 4 5 5 4 4 4 4 3 3 3 2 3 3 3 3 4 4 4 4 4 4 4 4 4 4 3 3 3 3 3 3 3
-1 -0 1 3 2 4 5 2 2 3 3 2 3 3 4 3 3 3 3 2 3 2 2 2 2 3 3 3 3 3 3 3 3 3 3 3 3 3 3 3 3 3 3 2
-1 -0 1 2 3 4 4 2 1 1 2 2 2 2 2 2 2 3 2 2 2 2 2 2 2 2 3 3 3 3 3 3 3 3 3 3 3 2 2 2 2 2 2 2
-2 -2 1 1 3 4 5 1 -0 1 3 2 1 1 1 1 3 3 2 2 2 2 2 2 2 2 2 2 2 2 2 2 2 2 2 2 2 2 2 2 2 1 1 1
-2 -1 -0 1 2 3 2 -0 -0 3 4 1 -0 -0 -0 0 1 1 0 1 1 1 1 1 1 2 2 2 2 2 2 2 2 2 2 2 2 1 1 1 1 1 1 0
-1 -0 -1 0 2 3 0 -1 1 2 0 -0 -1 -1 -1 -1 -1 -1 -0 -0 0 0 1 1 1 1 1 1 1 1 1 1 1 1 1 1 1 1 1 0 0 0 0 -0
-1 -0 0 0 2 1 -1 -1 -0 -1 -1 -1 -1 -1 -1 -1 -1 -1 -1 -1 -0 -0 -0 0 0 0 1 1 1 1 1 1 1 1 1 1 0 0 -0 -0 -0 -0 -1 -1
-1 -3 -2 -2 -0 -1 -1 -1 -1 -1 -1 -1 -1 -1 -1 -2 -1 -1 -1 -1 -1 -1 -1 -1 -0 -0 -0 0 0 0 0 0 -0 0 0 -0 -0 -0 -1 -1 -1 -1 -1 -1
-1 -3 -2 -2 -1 -1 -1 -1 -1 -1 -1 -2 -2 -2 -2 -2 -2 -2 -2 -2 -1 -1 -1 -1 -1 -1 -1 -1 -0 -1 -1 -1 -1 -1 -1 -1 -1 -1 -1 -1 -1 -1 -1 -1
-2 -2 -1 1 0 -0 -0 -1 -1 -1 -1 -1 -2 -2 -2 -2 -2 -2 -2 -2 -2 -2 -2 -2 -2 -1 -1 -1 -1 -1 -1 -1 -1 -1 -1 -1 -1 -2 -2 -2 -2 -2 -2 -2
Wind_Speed
3 5 7 8 10 8 8 10 11 10 7 8 13 15 14 11 11 12 12 12 13 12 10 9 8 8 7 7 8 7 7 6 5 5 6 6 5 5 4 4 5 5 5 4
4 8 9 7 7 7 8 10 10 7 5 7 11 15 15 13 13 13 13 13 13 11 9 8 8 8 8 8 8 7 7 6 6 5 5 4 4 3 3 4 4 5 5 4
7 4 4 6 6 7 8 10 9 8 7 7 9 12 12 9 10 11 12 12 12 12 11 9 9 8 8 8 8 7 7 6 6 6 4 4 3 3 3 4 3 4 4 4
4 4 4 6 7 7 8 7 8 7 6 5 5 8 10 9 10 10 10 11 11 11 11 10 9 9 9 8 7 7 6 5 5 6 7 7 6 5 4 4 4 4 4 4
4 3 5 6 6 7 6 5 6 7 6 7 7 8 9 7 10 10 9 9 10 10 11 10 9 9 8 6 6 6 6 5 5 6 7 8 6 5 4 4 5 4 3 4
4 4 4 4 4 5 3 2 3 4 5 7 9 8 8 7 9 8 7 7 8 9 10 9 7 6 5 5 6 5 6 6 5 5 6 7 8 6 6 6 5 4 3 3
3 3 2 2 2 3 3 2 2 3 4 6 4 7 8 6 7 7 6 5 6 7 7 8 7 6 6 6 6 6 7 6 6 6 6 6 7 8 8 7 6 5 4 4
3 3 2 2 4 4 5 5 3 4 5 4 4 8 6 4 4 4 5 5 4 5 6 7 7 7 6 6 6 6 7 6 6 6 6 6 7 6 5 6 5 5 4 4
3 3 1 2 2 3 4 4 3 3 4 5 5 6 6 5 4 4 4 4 4 4 4 5 5 5 6 6 5 6 6 6 6 6 5 6 6 6 5 5 5 4 4 4
2 3 3 1 2 0 1 2 2 4 3 5 5 5 4 3 4 4 4 4 4 3 2 3 4 4 4 5 5 5 6 6 6 6 5 5 6 6 5 4 5 4 5 4
2 2 1 1 2 3 2 2 2 3 4 4 5 4 1 4 4 5 4 4 4 3 3 2 2 3 3 3 4 5 5 6 5 5 5 5 6 6 5 5 5 4 4 4
2 2 3 3 1 2 3 4 4 4 4 4 5 5 1 3 4 5 5 4 4 3 3 3 2 2 2 2 3 4 4 5 4 5 5 5 5 5 5 5 5 4 5 4
2 2 2 2 2 1 3 3 4 4 3 5 6 6 2 3 4 6 6 5 4 4 3 2 1 1 2 2 3 3 4 4 3 4 4 5 5 5 5 5 4 4 4 4
2 2 4 5 2 2 4 5 5 5 5 7 9 12 9 8 8 8 8 7 5 4 3 3 2 2 2 2 2 3 3 3 3 4 4 4 4 4 4 4 4 4 4 4
1 3 4 5 6 4 6 7 8 9 10 9 11 13 13 11 10 9 8 6 4 4 4 4 3 3 2 2 2 2 2 3 4 4 4 4 4 3 4 4 4 4 4 4
0 2 2 4 5 6 8 10 11 11 12 13 13 15 12 11 9 9 8 6 5 5 5 4 4 3 3 3 2 2 2 2 4 4 4 4 4 3 3 3 3 4 4 4
2 2 3 5 4 4 8 9 10 9 10 10 13 13 9 9 9 9 8 7 6 6 5 4 4 4 4 4 3 3 2 2 3 4 4 4 4 4 4 4 4 4 4 3
3 3 2 2 2 7 3 1 5 8 9 9 10 11 10 10 10 8 6 6 6 5 5 4 4 4 4 4 3 2 2 3 3 3 3 3 4 4 4 4 4 4 3 3
3 4 2 2 4 7 5 3 4 6 7 7 10 10 10 9 6 5 5 6 6 5 4 4 4 4 4 3 2 1 2 2 2 2 3 3 4 4 4 4 4 3 3 3
1 2 3 3 4 6 2 1 2 2 5 3 5 7 7 4 4 5 5 6 5 4 3 3 3 3 3 2 1 1 1 1 2 2 2 2 3 4 4 4 3 3 3 3
2 2 4 6 6 7 2 1 3 4 3 2 4 5 5 4 6 6 6 6 4 4 4 3 3 3 2 2 1 1 1 2 1 1 1 2 2 3 3 3 3 3 3 2
5 5 5 5 6 6 2 4 4 3 4 4 5 5 5 6 6 5 5 5 4 4 3 3 3 3 3 2 1 1 2 1 1 2 2 2 2 2 3 3 3 3 3 3
6 6 4 6 6 3 3 4 4 4 5 5 5 5 5 5 5 5 5 5 4 4 3 3 3 3 3 2 2 2 2 1 1 2 2 2 2 2 3 3 3 3 3 3
5 4 5 7 9 8 7 8 8 7 7 7 6 5 5 5 5 5 5 4 4 4 3 3 3 3 3 3 2 2 1 1 2 2 2 2 3 2 2 2 3 3 3 3
5 5 5 8 9 8 7 7 7 7 7 7 7 5 5 5 5 5 5 5 4 4 4 3 3 3 3 3 2 2 1 2 2 2 2 2 3 3 2 2 2 2 3 3
7 8 7 7 5 5 6 4 5 6 7 7 6 5 5 5 5 5 5 4 4 4 4 4 4 3 3 3 2 2 1 2 2 2 2 2 2 2 2 2 1 1 2 2
Wind_Direction
185 200 215 216 214 237 247 253 263 270 272 255 248 255 262 253 244 244 240 237 233 231 233 228 226 220 209 203 201 194 193 195 184 184 179 178 180 178 176 179 179 180 185 187
185 220 230 234 226 229 237 252 266 277 269 258 258 263 264 252 240 240 239 237 233 234 232 227 219 213 208 205 199 197 197 196 192 191 188 183 175 174 173 172 180 183 180 183
207 230 227 217 223 228 241 241 259 274 286 262 264 263 249 243 234 236 240 240 232 228 228 224 218 210 208 204 199 199 201 200 196 184 170 160 152 156 177 181 184 185 184 186
228 244 224 220 227 226 248 244 256 264 262 268 252 267 256 250 240 237 240 236 232 226 227 225 220 213 212 204 195 198 197 197 194 186 181 178 185 192 198 191 186 185 188 189
227 230 220 227 240 232 242 264 250 253 256 267 252 258 263 244 246 247 242 235 232 229 225 222 219 218 213 205 195 198 194 190 192 194 192 190 194 199 190 185 186 189 190 192
247 251 243 250 259 233 234 249 236 230 238 255 245 242 267 239 241 246 245 235 231 226 228 224 218 216 207 202 200 194 187 189 193 197 198 199 197 194 190 191 192 194 197 202
265 234 231 246 247 208 208 212 234 222 226 250 228 239 257 248 241 248 256 250 238 229 225 218 214 211 206 198 191 187 187 193 196 198 203 205 203 200 200 199 199 195 200 211
234 247 222 233 230 222 213 215 225 247 256 266 227 244 261 263 272 275 275 277 266 236 228 219 212 207 202 196 191 190 192 197 201 202 207 207 204 204 205 205 205 208 209 213
227 252 241 232 248 213 196 211 248 253 273 266 254 262 280 293 303 294 284 281 272 253 235 222 214 209 203 203 202 199 201 205 206 205 205 210 205 209 206 202 205 211 211 206
241 256 275 256 205 178 237 185 197 209 243 253 263 262 276 302 295 294 284 282 287 289 265 229 219 218 216 212 209 207 208 207 209 208 207 212 206 206 203 201 203 204 206 203
235 229 273 171 200 206 172 182 214 218 256 260 266 267 239 264 293 294 291 292 291 292 287 263 235 224 208 204 208 207 208 205 203 205 207 208 205 200 199 202 204 204 202 199
215 229 247 233 220 271 219 214 204 221 243 248 259 273 17 292 310 315 306 304 297 296 293 286 245 227 204 204 214 212 207 205 203 201 200 203 202 195 195 200 200 199 202 203
187 198 234 196 190 205 232 234 227 232 242 241 245 268 9 333 328 328 320 308 302 299 301 296 282 249 225 223 227 223 216 205 201 197 195 195 203 199 198 199 194 195 199 201
234 220 234 244 265 209 229 234 223 215 232 248 249 267 284 303 311 314 315 308 302 300 299 296 296 287 256 248 246 230 223 207 197 197 196 197 205 200 197 196 192 193 197 199
221 239 246 260 264 249 242 239 223 221 236 246 263 267 275 289 297 300 307 306 298 301 304 302 303 299 292 269 262 247 228 205 195 197 199 201 198 193 188 189 190 191 196 200
274 232 243 262 257 254 259 251 236 235 242 249 264 272 280 293 295 293 294 294 287 291 297 303 308 305 302 286 266 249 238 214 196 197 200 194 186 184 183 183 183 186 190 196
202 195 230 257 277 274 259 241 227 228 231 234 247 264 293 295 294 287 286 280 276 286 294 300 299 296 297 292 274 248 242 222 202 198 196 190 185 185 187 184 183 189 196 200
199 207 235 264 247 244 258 137 217 230 247 242 260 280 287 290 292 288 282 277 279 286 293 297 301 300 300 294 281 250 223 209 199 193 192 192 190 186 185 187 191 197 200 206
223 203 213 224 255 270 271 220 204 222 260 249 256 279 295 308 302 291 304 296 279 281 283 291 299 298 303 301 288 226 216 198 186 195 199 200 190 183 184 190 194 197 199 209
69 214 220 216 240 251 274 171 205 210 260 258 260 276 292 312 288 301 332 322 310 305 311 319 317 308 304 298 276 207 210 202 210 217 215 203 191 186 189 192 194 195 196 208
165 201 219 227 245 267 294 161 171 210 280 321 275 277 272 262 271 309 324 326 324 324 329 332 322 309 303 303 286 234 225 232 237 216 196 187 187 190 187 183 187 182 185 198
202 193 205 205 225 254 147 151 200 269 328 305 297 291 279 278 292 307 316 324 326 329 331 329 327 320 319 315 273 256 252 246 192 178 179 176 172 175 177 177 177 177 176 188
221 216 216 217 238 302 204 226 267 296 286 291 293 297 288 287 292 301 310 315 319 318 320 322 322 318 316 306 267 250 264 224 177 173 175 167 164 171 175 179 177 175 181 191
234 223 236 256 263 267 260 263 270 270 274 287 289 291 286 286 296 302 304 309 317 320 321 322 317 308 307 306 295 270 255 204 181 183 181 172 168 170 171 181 187 186 193 199
241 201 234 257 269 280 268 258 265 276 278 281 284 278 275 279 285 290 297 302 305 311 313 309 298 295 299 302 294 288 255 195 187 193 186 177 174 170 174 185 195 209 229 222
219 213 220 248 257 259 281 293 286 277 277 277 281 288 284 271 272 280 287 291 295 301 306 303 299 299 304 307 296 290 261 215 189 185 187 184 178 176 178 168 159 169 221 232
Height
1497 1497 1494 1493 1494 1494 1493 1492 1488 1486 1489 1488 1483 1479 1476 1477 1478 1476 1476 1477 1477 1478 1480 1481 1482 1484 1485 1487 1489 1490 1493 1495 1497 1499 1501 1504 1506 1508 1511 1513 1514 1515 1517 1518
1495 1493 1492 1493 1494 1494 1493 1491 1487 1486 1488 1488 1481 1475 1471 1471 1471 1471 1472 1472 1472 1474 1475 1476 1478 1480 1481 1483 1485 1487 1489 1491 1493 1496 1498 1500 1503 1506 1508 1509 1511 1513 1514 1515
1489 1490 1492 1492 1492 1491 1490 1488 1486 1487 1487 1486 1483 1470 1463 1463 1465 1467 1467 1467 1468 1469 1470 1472 1474 1475 1477 1479 1481 1483 1485 1487 1489 1493 1495 1498 1500 1503 1505 1506 1508 1509 1510 1511
1490 1491 1491 1490 1489 1489 1486 1486 1487 1487 1486 1481 1482 1469 1457 1457 1459 1460 1461 1462 1463 1465 1467 1469 1470 1471 1473 1475 1478 1480 1482 1484 1487 1490 1492 1494 1496 1498 1500 1502 1504 1505 1507 1508
1488 1490 1489 1487 1487 1487 1485 1486 1487 1486 1485 1484 1480 1476 1455 1456 1454 1453 1456 1458 1459 1461 1463 1464 1466 1468 1469 1471 1474 1476 1478 1481 1484 1486 1488 1491 1493 1495 1497 1499 1500 1502 1503 1504
1489 1490 1490 1487 1487 1487 1486 1486 1486 1486 1484 1481 1473 1472 1453 1450 1450 1450 1453 1454 1456 1458 1459 1461 1463 1464 1466 1468 1471 1473 1475 1478 1480 1483 1485 1487 1489 1491 1494 1495 1496 1498 1499 1500
1486 1487 1488 1488 1486 1486 1485 1483 1478 1475 1475 1467 1469 1468 1454 1448 1450 1451 1451 1452 1453 1455 1456 1457 1459 1460 1462 1465 1467 1470 1472 1475 1476 1478 1481 1483 1485 1488 1489 1491 1492 1494 1495 1496
1483 1480 1485 1486 1486 1484 1483 1481 1478 1472 1464 1458 1468 1462 1448 1450 1450 1451 1451 1452 1452 1453 1453 1454 1456 1457 1459 1461 1464 1467 1469 1471 1474 1475 1477 1479 1482 1484 1486 1487 1489 1490 1491 1492
1483 1480 1485 1486 1486 1484 1482 1480 1482 1479 1475 1468 1455 1451 1448 1447 1448 1449 1450 1450 1450 1451 1451 1452 1453 1455 1457 1458 1461 1463 1466 1468 1470 1471 1473 1476 1478 1480 1481 1483 1485 1486 1487 1489
1487 1486 1483 1485 1485 1485 1484 1483 1483 1478 1471 1456 1447 1447 1447 1446 1446 1448 1449 1449 1450 1450 1450 1450 1451 1452 1454 1456 1458 1460 1463 1464 1466 1468 1470 1472 1474 1476 1477 1479 1481 1482 1483 1485
1489 1486 1484 1484 1484 1481 1485 1485 1482 1476 1473 1460 1449 1445 1448 1449 1448 1448 1449 1449 1449 1449 1449 1449 1450 1451 1452 1453 1455 1457 1459 1461 1462 1464 1466 1468 1470 1472 1473 1475 1477 1478 1479 1481
1488 1485 1481 1482 1485 1485 1482 1481 1481 1475 1473 1469 1456 1450 1450 1451 1450 1450 1449 1449 1449 1448 1448 1448 1448 1449 1450 1451 1453 1454 1455 1457 1459 1461 1462 1464 1466 1468 1470 1471 1473 1474 1476 1477
1487 1486 1478 1475 1483 1486 1484 1482 1482 1480 1475 1467 1458 1450 1451 1452 1451 1451 1450 1449 1448 1447 1447 1447 1447 1447 1448 1449 1450 1451 1452 1454 1455 1457 1458 1460 1462 1464 1466 1467 1469 1471 1472 1473
1487 1484 1478 1469 1469 1477 1480 1481 1481 1478 1469 1463 1458 1452 1449 1450 1450 1450 1450 1448 1447 1447 1446 1445 1445 1445 1446 1447 1448 1449 1450 1451 1452 1454 1455 1457 1459 1461 1462 1463 1465 1466 1467 1468
1486 1483 1482 1479 1478 1478 1476 1476 1476 1475 1468 1463 1455 1453 1449 1450 1450 1450 1449 1447 1446 1445 1444 1443 1442 1443 1443 1444 1445 1445 1447 1448 1449 1450 1452 1453 1455 1456 1458 1459 1461 1462 1463 1464
1487 1484 1484 1480 1478 1477 1475 1470 1470 1470 1468 1464 1459 1453 1450 1451 1450 1448 1447 1446 1444 1443 1442 1441 1441 1441 1440 1441 1441 1442 1443 1444 1446 1447 1448 1450 1451 1452 1454 1455 1457 1458 1459 1460
1486 1486 1480 1470 1476 1475 1465 1463 1464 1463 1461 1460 1455 1449 1449 1449 1447 1446 1445 1444 1443 1442 1441 1439 1439 1439 1438 1438 1439 1439 1440 1441 1443 1444 1445 1446 1447 1449 1450 1452 1453 1454 1455 1456
1485 1484 1480 1473 1473 1466 1454 1461 1460 1459 1457 1457 1454 1450 1449 1448 1446 1444 1444 1443 1441 1440 1439 1438 1438 1437 1437 1436 1436 1437 1438 1439 1440 1441 1442 1443 1444 1445 1447 1448 1449 1450 1451 1452
1483 1482 1477 1473 1464 1455 1454 1459 1460 1459 1454 1453 1453 1450 1448 1446 1444 1441 1441 1440 1440 1439 1438 1437 1437 1435 1435 1434 1434 1435 1435 1436 1437 1438 1439 1440 1441 1442 1443 1444 1446 1447 1448 1449
1484 1483 1478 1473 1463 1453 1449 1457 1459 1460 1452 1450 1450 1449 1448 1446 1442 1439 1439 1438 1437 1437 1436 1435 1435 1434 1433 1433 1433 1433 1433 1433 1434 1435 1436 1438 1438 1439 1440 1441 1442 1443 1444 1445
1483 1481 1477 1471 1464 1452 1454 1457 1459 1454 1448 1450 1448 1447 1446 1445 1443 1441 1438 1436 1435 1435 1434 1433 1433 1432 1431 1431 1431 1430 1431 1431 1432 1433 1434 1435 1436 1436 1437 1438 1439 1440 1441 1442
1473 1473 1475 1470 1463 1454 1455 1456 1455 1450 1450 1449 1447 1446 1444 1442 1440 1438 1437 1435 1434 1433 1432 1431 1430 1430 1429 1429 1429 1428 1429 1429 1430 1431 1431 1432 1433 1434 1435 1435 1436 1437 1437 1438
1470 1467 1464 1463 1456 1454 1454 1452 1451 1450 1449 1447 1446 1444 1442 1440 1438 1437 1435 1434 1433 1432 1431 1430 1429 1428 1428 1427 1427 1427 1427 1427 1427 1428 1429 1429 1430 1431 1432 1432 1433 1434 1435 1435
1465 1467 1465 1461 1452 1451 1451 1450 1449 1448 1447 1445 1444 1442 1440 1438 1436 1435 1434 1432 1431 1430 1429 1428 1427 1426 1425 1425 1425 1425 1425 1425 1425 1425 1426 1427 1427 1428 1429 1430 1431 1431 1432 1432
1459 1462 1460 1456 1450 1448 1445 1445 1445 1444 1443 1442 1441 1439 1438 1437 1435 1434 1432 1431 1430 1429 1428 1427 1426 1425 1424 1423 1423 1422 1422 1422 1422 1423 1423 1424 1424 1425 1426 1427 1428 1428 1430 1430
1454 1454 1452 1445 1445 1445 1443 1442 1442 1441 1440 1439 1438 1436 1435 1435 1433 1432 1431 1429 1428 1427 1426 1425 1424 1423 1422 1421 1420 1420 1420 1420 1420 1420 1420 1421 1422 1422 1423 1424 1425 1426 1427 1428